Year,Month,Day,Hour,Minute,Value (Times are PST for temperature in C)
2018,04,24,00,00,7.90
2018,04,24,00,01,8.00
2018,04,24,00,02,8.10
2018,04,24,00,03,8.10
2018,04,24,00,04,8.10
2018,04,24,00,05,8.10
2018,04,24,00,06,8.10
2018,04,24,00,07,8.10
2018,04,24,00,08,8.10
2018,04,24,00,09,8.10
2018,04,24,00,10,8.10
2018,04,24,00,11,8.00
2018,04,24,00,12,8.00
2018,04,24,00,13,8.00
2018,04,24,00,14,8.00
2018,04,24,00,15,8.00
2018,04,24,00,16,8.00
2018,04,24,00,17,8.00
2018,04,24,00,18,8.00
2018,04,24,00,19,8.00
2018,04,24,00,20,7.90
2018,04,24,00,21,7.90
2018,04,24,00,22,7.90
2018,04,24,00,23,7.90
2018,04,24,00,24,7.90
2018,04,24,00,25,7.90
2018,04,24,00,26,7.80
2018,04,24,00,27,7.80
2018,04,24,00,28,7.80
2018,04,24,00,29,7.80
2018,04,24,00,30,7.80
2018,04,24,00,31,7.80
2018,04,24,00,32,7.80
2018,04,24,00,33,7.80
2018,04,24,00,34,7.80
2018,04,24,00,35,7.90
2018,04,24,00,36,7.90
2018,04,24,00,37,8.00
2018,04,24,00,38,8.00
2018,04,24,00,39,8.00
2018,04,24,00,40,8.10
2018,04,24,00,41,8.10
2018,04,24,00,42,8.10
2018,04,24,00,43,8.10
2018,04,24,00,44,8.00
2018,04,24,00,45,8.00
2018,04,24,00,46,7.90
2018,04,24,00,47,7.90
2018,04,24,00,48,7.90
2018,04,24,00,49,7.80
2018,04,24,00,50,7.80
2018,04,24,00,51,7.80
2018,04,24,00,52,7.70
2018,04,24,00,53,7.70
2018,04,24,00,54,7.60
2018,04,24,00,55,7.60
2018,04,24,00,56,7.60
2018,04,24,00,57,7.60
2018,04,24,00,58,7.50
2018,04,24,00,59,7.50
2018,04,24,01,00,7.50
2018,04,24,01,01,7.40
2018,04,24,01,02,7.40
2018,04,24,01,03,7.40
2018,04,24,01,04,7.40
2018,04,24,01,05,7.30
2018,04,24,01,06,7.30
2018,04,24,01,07,7.30
2018,04,24,01,08,7.30
2018,04,24,01,09,7.30
2018,04,24,01,10,7.30
2018,04,24,01,11,7.30
2018,04,24,01,12,7.30
2018,04,24,01,13,7.30
2018,04,24,01,14,7.40
2018,04,24,01,15,7.40
2018,04,24,01,16,7.40
2018,04,24,01,17,7.40
2018,04,24,01,18,7.50
2018,04,24,01,19,7.50
2018,04,24,01,20,7.60
2018,04,24,01,21,7.60
2018,04,24,01,22,7.60
2018,04,24,01,23,7.60
2018,04,24,01,24,7.60
2018,04,24,01,25,7.60
2018,04,24,01,26,7.60
2018,04,24,01,27,7.60
2018,04,24,01,28,7.60
2018,04,24,01,29,7.50
2018,04,24,01,30,7.50
2018,04,24,01,31,7.40
2018,04,24,01,32,7.40
2018,04,24,01,33,7.40
2018,04,24,01,34,7.30
2018,04,24,01,35,7.30
2018,04,24,01,36,7.30
2018,04,24,01,37,7.30
2018,04,24,01,38,7.20
2018,04,24,01,39,7.20
2018,04,24,01,40,7.20
2018,04,24,01,41,7.20
2018,04,24,01,42,7.20
2018,04,24,01,43,7.20
2018,04,24,01,44,7.20
2018,04,24,01,45,7.20
2018,04,24,01,46,7.10
2018,04,24,01,47,7.10
2018,04,24,01,48,7.10
2018,04,24,01,49,7.10
2018,04,24,01,50,7.10
2018,04,24,01,51,7.10
2018,04,24,01,52,7.00
2018,04,24,01,53,7.00
2018,04,24,01,54,6.90
2018,04,24,01,55,6.90
2018,04,24,01,56,6.80
2018,04,24,01,57,6.80
2018,04,24,01,58,6.80
2018,04,24,01,59,6.80
2018,04,24,02,00,6.80
2018,04,24,02,01,6.80
2018,04,24,02,02,6.80
2018,04,24,02,03,6.80
2018,04,24,02,04,6.80
2018,04,24,02,05,6.80
2018,04,24,02,06,6.80
2018,04,24,02,07,6.70
2018,04,24,02,08,6.70
2018,04,24,02,09,6.70
2018,04,24,02,10,6.70
2018,04,24,02,11,6.70
2018,04,24,02,12,6.70
2018,04,24,02,13,6.70
2018,04,24,02,14,6.70
2018,04,24,02,15,6.60
2018,04,24,02,16,6.60
2018,04,24,02,17,6.60
2018,04,24,02,18,6.60
2018,04,24,02,19,6.60
2018,04,24,02,20,6.60
2018,04,24,02,21,6.60
2018,04,24,02,22,6.70
2018,04,24,02,23,6.70
2018,04,24,02,24,6.70
2018,04,24,02,25,6.80
2018,04,24,02,26,6.80
2018,04,24,02,27,6.90
2018,04,24,02,28,6.90
2018,04,24,02,29,7.00
2018,04,24,02,30,7.00
2018,04,24,02,31,7.00
2018,04,24,02,32,7.00
2018,04,24,02,33,7.00
2018,04,24,02,34,6.90
2018,04,24,02,35,6.90
2018,04,24,02,36,6.90
2018,04,24,02,37,6.80
2018,04,24,02,38,6.80
2018,04,24,02,39,6.80
2018,04,24,02,40,6.80
2018,04,24,02,41,6.80
2018,04,24,02,42,6.80
2018,04,24,02,43,6.80
2018,04,24,02,44,6.80
2018,04,24,02,45,6.80
2018,04,24,02,46,6.80
2018,04,24,02,47,6.80
2018,04,24,02,48,6.80
2018,04,24,02,49,6.70
2018,04,24,02,50,6.70
2018,04,24,02,51,6.70
2018,04,24,02,52,6.60
2018,04,24,02,53,6.60
2018,04,24,02,54,6.50
2018,04,24,02,55,6.50
2018,04,24,02,56,6.40
2018,04,24,02,57,6.40
2018,04,24,02,58,6.40
2018,04,24,02,59,6.40
2018,04,24,03,00,6.30
2018,04,24,03,01,6.30
2018,04,24,03,02,6.40
2018,04,24,03,03,6.40
2018,04,24,03,04,6.40
2018,04,24,03,05,6.40
2018,04,24,03,06,6.40
2018,04,24,03,07,6.50
2018,04,24,03,08,6.50
2018,04,24,03,09,6.60
2018,04,24,03,10,6.50
2018,04,24,03,11,6.50
2018,04,24,03,12,6.50
2018,04,24,03,13,6.60
2018,04,24,03,14,6.60
2018,04,24,03,15,6.60
2018,04,24,03,16,6.60
2018,04,24,03,17,6.60
2018,04,24,03,18,6.60
2018,04,24,03,19,6.70
2018,04,24,03,20,6.70
2018,04,24,03,21,6.70
2018,04,24,03,22,6.70
2018,04,24,03,23,6.70
2018,04,24,03,24,6.70
2018,04,24,03,25,6.70
2018,04,24,03,26,6.70
2018,04,24,03,27,6.70
2018,04,24,03,28,6.80
2018,04,24,03,29,6.80
2018,04,24,03,30,6.80
2018,04,24,03,31,6.80
2018,04,24,03,32,6.80
2018,04,24,03,33,6.80
2018,04,24,03,34,6.90
2018,04,24,03,35,6.90
2018,04,24,03,36,6.90
2018,04,24,03,37,6.90
2018,04,24,03,38,6.90
2018,04,24,03,39,6.90
2018,04,24,03,40,6.90
2018,04,24,03,41,6.90
2018,04,24,03,42,6.90
2018,04,24,03,43,6.90
2018,04,24,03,44,6.80
2018,04,24,03,45,6.80
2018,04,24,03,46,6.80
2018,04,24,03,47,6.70
2018,04,24,03,48,6.70
2018,04,24,03,49,6.60
2018,04,24,03,50,6.60
2018,04,24,03,51,6.60
2018,04,24,03,52,6.50
2018,04,24,03,53,6.50
2018,04,24,03,54,6.50
2018,04,24,03,55,6.40
2018,04,24,03,56,6.50
2018,04,24,03,57,6.50
2018,04,24,03,58,6.50
2018,04,24,03,59,6.50
2018,04,24,04,00,6.50
2018,04,24,04,01,6.50
2018,04,24,04,02,6.60
2018,04,24,04,03,6.70
2018,04,24,04,04,6.70
2018,04,24,04,05,6.80
2018,04,24,04,06,6.80
2018,04,24,04,07,6.80
2018,04,24,04,08,6.80
2018,04,24,04,09,6.80
2018,04,24,04,10,6.70
2018,04,24,04,11,6.70
2018,04,24,04,12,6.60
2018,04,24,04,13,6.60
2018,04,24,04,14,6.50
2018,04,24,04,15,6.40
2018,04,24,04,16,6.30
2018,04,24,04,17,6.30
2018,04,24,04,18,6.30
2018,04,24,04,19,6.40
2018,04,24,04,20,6.40
2018,04,24,04,21,6.40
2018,04,24,04,22,6.40
2018,04,24,04,23,6.40
2018,04,24,04,24,6.40
2018,04,24,04,25,6.40
2018,04,24,04,26,6.40
2018,04,24,04,27,6.40
2018,04,24,04,28,6.30
2018,04,24,04,29,6.30
2018,04,24,04,30,6.40
2018,04,24,04,31,6.40
2018,04,24,04,32,6.40
2018,04,24,04,33,6.40
2018,04,24,04,34,6.50
2018,04,24,04,35,6.50
2018,04,24,04,36,6.50
2018,04,24,04,37,6.50
2018,04,24,04,38,6.50
2018,04,24,04,39,6.50
2018,04,24,04,40,6.50
2018,04,24,04,41,6.50
2018,04,24,04,42,6.50
2018,04,24,04,43,6.40
2018,04,24,04,44,6.40
2018,04,24,04,45,6.40
2018,04,24,04,46,6.40
2018,04,24,04,47,6.40
2018,04,24,04,48,6.30
2018,04,24,04,49,6.40
2018,04,24,04,50,6.40
2018,04,24,04,51,6.40
2018,04,24,04,52,6.40
2018,04,24,04,53,6.40
2018,04,24,04,54,6.40
2018,04,24,04,55,6.30
2018,04,24,04,56,6.30
2018,04,24,04,57,6.30
2018,04,24,04,58,6.30
2018,04,24,04,59,6.30
2018,04,24,05,00,6.30
2018,04,24,05,01,6.30
2018,04,24,05,02,6.30
2018,04,24,05,03,6.20
2018,04,24,05,04,6.20
2018,04,24,05,05,6.20
2018,04,24,05,06,6.20
2018,04,24,05,07,6.20
2018,04,24,05,08,6.20
2018,04,24,05,09,6.20
2018,04,24,05,10,6.20
2018,04,24,05,11,6.20
2018,04,24,05,12,6.20
2018,04,24,05,13,6.20
2018,04,24,05,14,6.20
2018,04,24,05,15,6.20
2018,04,24,05,16,6.20
2018,04,24,05,17,6.10
2018,04,24,05,18,6.10
2018,04,24,05,19,6.10
2018,04,24,05,20,6.10
2018,04,24,05,21,6.10
2018,04,24,05,22,6.10
2018,04,24,05,23,6.10
2018,04,24,05,24,6.00
2018,04,24,05,25,6.00
2018,04,24,05,26,6.00
2018,04,24,05,27,5.90
2018,04,24,05,28,5.90
2018,04,24,05,29,5.90
2018,04,24,05,30,5.90
2018,04,24,05,31,6.00
2018,04,24,05,32,6.00
2018,04,24,05,33,6.10
2018,04,24,05,34,6.10
2018,04,24,05,35,6.10
2018,04,24,05,36,6.10
2018,04,24,05,37,6.10
2018,04,24,05,38,6.10
2018,04,24,05,39,6.10
2018,04,24,05,40,6.10
2018,04,24,05,41,6.10
2018,04,24,05,42,6.10
2018,04,24,05,43,6.10
2018,04,24,05,44,6.10
2018,04,24,05,45,6.10
2018,04,24,05,46,6.10
2018,04,24,05,47,6.10
2018,04,24,05,48,6.00
2018,04,24,05,49,6.00
2018,04,24,05,50,5.90
2018,04,24,05,51,5.90
2018,04,24,05,52,5.90
2018,04,24,05,53,5.80
2018,04,24,05,54,5.80
2018,04,24,05,55,5.80
2018,04,24,05,56,5.80
2018,04,24,05,57,5.80
2018,04,24,05,58,5.80
2018,04,24,05,59,5.80
2018,04,24,06,00,5.80
2018,04,24,06,01,5.80
2018,04,24,06,02,5.70
2018,04,24,06,03,5.70
2018,04,24,06,04,5.80
2018,04,24,06,05,5.80
2018,04,24,06,06,5.80
2018,04,24,06,07,5.80
2018,04,24,06,08,5.80
2018,04,24,06,09,5.80
2018,04,24,06,10,5.80
2018,04,24,06,11,5.80
2018,04,24,06,12,5.70
2018,04,24,06,13,5.70
2018,04,24,06,14,5.80
2018,04,24,06,15,5.80
2018,04,24,06,16,5.80
2018,04,24,06,17,5.80
2018,04,24,06,18,5.80
2018,04,24,06,19,5.90
2018,04,24,06,20,5.90
2018,04,24,06,21,5.90
2018,04,24,06,22,5.90
2018,04,24,06,23,6.00
2018,04,24,06,24,6.10
2018,04,24,06,25,6.10
2018,04,24,06,26,6.20
2018,04,24,06,27,6.20
2018,04,24,06,28,6.10
2018,04,24,06,29,6.10
2018,04,24,06,30,6.10
2018,04,24,06,31,6.10
2018,04,24,06,32,6.10
2018,04,24,06,33,6.10
2018,04,24,06,34,6.10
2018,04,24,06,35,6.10
2018,04,24,06,36,6.20
2018,04,24,06,37,6.20
2018,04,24,06,38,6.20
2018,04,24,06,39,6.20
2018,04,24,06,40,6.20
2018,04,24,06,41,6.20
2018,04,24,06,42,6.20
2018,04,24,06,43,6.20
2018,04,24,06,44,6.30
2018,04,24,06,45,6.30
2018,04,24,06,46,6.30
2018,04,24,06,47,6.30
2018,04,24,06,48,6.30
2018,04,24,06,49,6.30
2018,04,24,06,50,6.30
2018,04,24,06,51,6.30
2018,04,24,06,52,6.30
2018,04,24,06,53,6.30
2018,04,24,06,54,6.30
2018,04,24,06,55,6.30
2018,04,24,06,56,6.30
2018,04,24,06,57,6.40
2018,04,24,06,58,6.40
2018,04,24,06,59,6.40
2018,04,24,07,00,6.40
2018,04,24,07,01,6.50
2018,04,24,07,02,6.50
2018,04,24,07,03,6.50
2018,04,24,07,04,6.50
2018,04,24,07,05,6.50
2018,04,24,07,06,6.40
2018,04,24,07,07,6.40
2018,04,24,07,08,6.50
2018,04,24,07,09,6.50
2018,04,24,07,10,6.60
2018,04,24,07,11,6.60
2018,04,24,07,12,6.70
2018,04,24,07,13,6.70
2018,04,24,07,14,6.80
2018,04,24,07,15,6.80
2018,04,24,07,16,6.90
2018,04,24,07,17,6.90
2018,04,24,07,18,6.90
2018,04,24,07,19,7.00
2018,04,24,07,20,7.10
2018,04,24,07,21,7.10
2018,04,24,07,22,7.20
2018,04,24,07,23,7.30
2018,04,24,07,24,7.30
2018,04,24,07,25,7.40
2018,04,24,07,26,7.50
2018,04,24,07,27,7.60
2018,04,24,07,28,7.60
2018,04,24,07,29,7.70
2018,04,24,07,30,7.70
2018,04,24,07,31,7.70
2018,04,24,07,32,7.80
2018,04,24,07,33,7.80
2018,04,24,07,34,7.90
2018,04,24,07,35,8.00
2018,04,24,07,36,8.10
2018,04,24,07,37,8.10
2018,04,24,07,38,8.20
2018,04,24,07,39,8.20
2018,04,24,07,40,8.30
2018,04,24,07,41,8.30
2018,04,24,07,42,8.30
2018,04,24,07,43,8.30
2018,04,24,07,44,8.40
2018,04,24,07,45,8.40
2018,04,24,07,46,8.40
2018,04,24,07,47,8.50
2018,04,24,07,48,8.50
2018,04,24,07,49,8.50
2018,04,24,07,50,8.60
2018,04,24,07,51,8.70
2018,04,24,07,52,8.70
2018,04,24,07,53,8.80
2018,04,24,07,54,8.90
2018,04,24,07,55,8.90
2018,04,24,07,56,8.90
2018,04,24,07,57,8.90
2018,04,24,07,58,8.90
2018,04,24,07,59,8.90
2018,04,24,08,00,8.90
2018,04,24,08,01,8.90
2018,04,24,08,02,8.90
2018,04,24,08,03,8.90
2018,04,24,08,04,8.90
2018,04,24,08,05,8.90
2018,04,24,08,06,8.90
2018,04,24,08,07,9.00
2018,04,24,08,08,9.00
2018,04,24,08,09,9.00
2018,04,24,08,10,9.10
2018,04,24,08,11,9.20
2018,04,24,08,12,9.20
2018,04,24,08,13,9.30
2018,04,24,08,14,9.40
2018,04,24,08,15,9.60
2018,04,24,08,16,9.70
2018,04,24,08,17,9.90
2018,04,24,08,18,10.00
2018,04,24,08,19,10.20
2018,04,24,08,20,10.20
2018,04,24,08,21,10.30
2018,04,24,08,22,10.30
2018,04,24,08,23,10.30
2018,04,24,08,24,10.40
2018,04,24,08,25,10.60
2018,04,24,08,26,10.70
2018,04,24,08,27,10.80
2018,04,24,08,28,10.80
2018,04,24,08,29,10.90
2018,04,24,08,30,11.00
2018,04,24,08,31,11.10
2018,04,24,08,32,11.20
2018,04,24,08,33,11.20
2018,04,24,08,34,11.30
2018,04,24,08,35,11.40
2018,04,24,08,36,11.40
2018,04,24,08,37,11.50
2018,04,24,08,38,11.70
2018,04,24,08,39,11.80
2018,04,24,08,40,12.00
2018,04,24,08,41,12.20
2018,04,24,08,42,12.40
2018,04,24,08,43,12.50
2018,04,24,08,44,12.60
2018,04,24,08,45,12.70
2018,04,24,08,46,12.80
2018,04,24,08,47,13.00
2018,04,24,08,48,13.10
2018,04,24,08,49,13.20
2018,04,24,08,50,13.40
2018,04,24,08,51,13.60
2018,04,24,08,52,13.80
2018,04,24,08,53,13.80
2018,04,24,08,54,13.90
2018,04,24,08,55,13.90
2018,04,24,08,56,14.00
2018,04,24,08,57,14.10
2018,04,24,08,58,14.20
2018,04,24,08,59,14.40
2018,04,24,09,00,14.60
2018,04,24,09,01,14.70
2018,04,24,09,02,14.90
2018,04,24,09,03,15.00
2018,04,24,09,04,15.10
2018,04,24,09,05,15.20
2018,04,24,09,06,15.30
2018,04,24,09,07,15.40
2018,04,24,09,08,15.50
2018,04,24,09,09,15.60
2018,04,24,09,10,15.70
2018,04,24,09,11,15.70
2018,04,24,09,12,15.80
2018,04,24,09,13,15.90
2018,04,24,09,14,16.00
2018,04,24,09,15,16.10
2018,04,24,09,16,16.20
2018,04,24,09,17,16.40
2018,04,24,09,18,16.40
2018,04,24,09,19,16.40
2018,04,24,09,20,16.40
2018,04,24,09,21,16.40
2018,04,24,09,22,16.50
2018,04,24,09,23,16.50
2018,04,24,09,24,16.50
2018,04,24,09,25,16.50
2018,04,24,09,26,16.60
2018,04,24,09,27,16.60
2018,04,24,09,28,16.70
2018,04,24,09,29,16.80
2018,04,24,09,30,16.90
2018,04,24,09,31,16.90
2018,04,24,09,32,17.00
2018,04,24,09,33,17.10
2018,04,24,09,34,17.20
2018,04,24,09,35,17.30
2018,04,24,09,36,17.30
2018,04,24,09,37,17.30
2018,04,24,09,38,17.30
2018,04,24,09,39,17.30
2018,04,24,09,40,17.30
2018,04,24,09,41,17.40
2018,04,24,09,42,17.40
2018,04,24,09,43,17.50
2018,04,24,09,44,17.50
2018,04,24,09,45,17.50
2018,04,24,09,46,17.60
2018,04,24,09,47,17.70
2018,04,24,09,48,17.80
2018,04,24,09,49,17.80
2018,04,24,09,50,17.80
2018,04,24,09,51,17.80
2018,04,24,09,52,17.80
2018,04,24,09,53,17.90
2018,04,24,09,54,18.00
2018,04,24,09,55,18.10
2018,04,24,09,56,18.20
2018,04,24,09,57,18.30
2018,04,24,09,58,18.40
2018,04,24,09,59,18.60
2018,04,24,10,00,18.70
2018,04,24,10,01,18.80
2018,04,24,10,02,18.90
2018,04,24,10,03,19.00
2018,04,24,10,04,19.10
2018,04,24,10,05,19.20
2018,04,24,10,06,19.20
2018,04,24,10,07,19.20
2018,04,24,10,08,19.20
2018,04,24,10,09,19.20
2018,04,24,10,10,19.20
2018,04,24,10,11,19.30
2018,04,24,10,12,19.30
2018,04,24,10,13,19.40
2018,04,24,10,14,19.40
2018,04,24,10,15,19.40
2018,04,24,10,16,19.40
2018,04,24,10,17,19.50
2018,04,24,10,18,19.50
2018,04,24,10,19,19.60
2018,04,24,10,20,19.60
2018,04,24,10,21,19.70
2018,04,24,10,22,19.70
2018,04,24,10,23,19.70
2018,04,24,10,24,19.80
2018,04,24,10,25,19.80
2018,04,24,10,26,19.90
2018,04,24,10,27,19.90
2018,04,24,10,28,19.90
2018,04,24,10,29,20.00
2018,04,24,10,30,20.00
2018,04,24,10,31,20.10
2018,04,24,10,32,20.20
2018,04,24,10,33,20.30
2018,04,24,10,34,20.40
2018,04,24,10,35,20.50
2018,04,24,10,36,20.50
2018,04,24,10,37,20.40
2018,04,24,10,38,20.10
2018,04,24,10,39,20.00
2018,04,24,10,40,19.90
2018,04,24,10,41,19.90
2018,04,24,10,42,19.90
2018,04,24,10,43,19.90
2018,04,24,10,44,19.90
2018,04,24,10,45,19.90
2018,04,24,10,46,19.90
2018,04,24,10,47,19.90
2018,04,24,10,48,20.10
2018,04,24,10,49,20.20
2018,04,24,10,50,20.30
2018,04,24,10,51,20.30
2018,04,24,10,52,20.20
2018,04,24,10,53,20.20
2018,04,24,10,54,20.20
2018,04,24,10,55,20.20
2018,04,24,10,56,20.20
2018,04,24,10,57,20.20
2018,04,24,10,58,20.20
2018,04,24,10,59,20.20
2018,04,24,11,00,20.20
2018,04,24,11,01,20.20
2018,04,24,11,02,20.20
2018,04,24,11,03,20.20
2018,04,24,11,04,20.20
2018,04,24,11,05,20.30
2018,04,24,11,06,20.30
2018,04,24,11,07,20.40
2018,04,24,11,08,20.40
2018,04,24,11,09,20.30
2018,04,24,11,10,20.10
2018,04,24,11,11,19.90
2018,04,24,11,12,19.80
2018,04,24,11,13,19.80
2018,04,24,11,14,19.70
2018,04,24,11,15,19.60
2018,04,24,11,16,19.60
2018,04,24,11,17,19.60
2018,04,24,11,18,19.40
2018,04,24,11,19,19.30
2018,04,24,11,20,19.30
2018,04,24,11,21,19.30
2018,04,24,11,22,19.30
2018,04,24,11,23,19.20
2018,04,24,11,24,19.10
2018,04,24,11,25,19.10
2018,04,24,11,26,19.10
2018,04,24,11,27,19.10
2018,04,24,11,28,19.20
2018,04,24,11,29,19.20
2018,04,24,11,30,19.30
2018,04,24,11,31,19.30
2018,04,24,11,32,19.40
2018,04,24,11,33,19.50
2018,04,24,11,34,19.60
2018,04,24,11,35,19.80
2018,04,24,11,36,19.90
2018,04,24,11,37,20.00
2018,04,24,11,38,20.00
2018,04,24,11,39,19.90
2018,04,24,11,40,19.80
2018,04,24,11,41,19.60
2018,04,24,11,42,19.60
2018,04,24,11,43,19.70
2018,04,24,11,44,19.80
2018,04,24,11,45,20.00
2018,04,24,11,46,20.10
2018,04,24,11,47,20.20
2018,04,24,11,48,20.30
2018,04,24,11,49,20.30
2018,04,24,11,50,20.20
2018,04,24,11,51,20.20
2018,04,24,11,52,20.30
2018,04,24,11,53,20.30
2018,04,24,11,54,20.20
2018,04,24,11,55,19.90
2018,04,24,11,56,19.70
2018,04,24,11,57,19.60
2018,04,24,11,58,19.30
2018,04,24,11,59,19.00
2018,04,24,12,00,18.80
2018,04,24,12,01,18.60
2018,04,24,12,02,18.40
2018,04,24,12,03,18.20
2018,04,24,12,04,17.90
2018,04,24,12,05,17.50
2018,04,24,12,06,17.20
2018,04,24,12,07,17.00
2018,04,24,12,08,16.80
2018,04,24,12,09,16.70
2018,04,24,12,10,16.70
2018,04,24,12,11,16.80
2018,04,24,12,12,16.80
2018,04,24,12,13,16.80
2018,04,24,12,14,16.90
2018,04,24,12,15,16.90
2018,04,24,12,16,17.10
2018,04,24,12,17,17.30
2018,04,24,12,18,17.40
2018,04,24,12,19,17.50
2018,04,24,12,20,17.40
2018,04,24,12,21,17.50
2018,04,24,12,22,17.50
2018,04,24,12,23,17.30
2018,04,24,12,24,17.20
2018,04,24,12,25,17.00
2018,04,24,12,26,16.80
2018,04,24,12,27,16.80
2018,04,24,12,28,16.80
2018,04,24,12,29,16.80
2018,04,24,12,30,16.80
2018,04,24,12,31,16.80
2018,04,24,12,32,16.90
2018,04,24,12,33,17.00
2018,04,24,12,34,17.00
2018,04,24,12,35,17.10
2018,04,24,12,36,17.20
2018,04,24,12,37,17.40
2018,04,24,12,38,17.60
2018,04,24,12,39,17.80
2018,04,24,12,40,17.90
2018,04,24,12,41,18.10
2018,04,24,12,42,18.20
2018,04,24,12,43,18.30
2018,04,24,12,44,18.40
2018,04,24,12,45,18.50
2018,04,24,12,46,18.50
2018,04,24,12,47,18.60
2018,04,24,12,48,18.60
2018,04,24,12,49,18.70
2018,04,24,12,50,18.80
2018,04,24,12,51,18.90
2018,04,24,12,52,19.00
2018,04,24,12,53,19.10
2018,04,24,12,54,19.10
2018,04,24,12,55,19.10
2018,04,24,12,56,19.10
2018,04,24,12,57,19.10
2018,04,24,12,58,19.00
2018,04,24,12,59,18.90
2018,04,24,13,00,18.70
2018,04,24,13,01,18.60
2018,04,24,13,02,18.60
2018,04,24,13,03,18.70
2018,04,24,13,04,18.80
2018,04,24,13,05,18.90
2018,04,24,13,06,19.00
2018,04,24,13,07,19.00
2018,04,24,13,08,19.10
2018,04,24,13,09,19.20
2018,04,24,13,10,19.20
2018,04,24,13,11,19.30
2018,04,24,13,12,19.40
2018,04,24,13,13,19.50
2018,04,24,13,14,19.50
2018,04,24,13,15,19.60
2018,04,24,13,16,19.70
2018,04,24,13,17,19.80
2018,04,24,13,18,19.80
2018,04,24,13,19,19.80
2018,04,24,13,20,19.70
2018,04,24,13,21,19.60
2018,04,24,13,22,19.60
2018,04,24,13,23,19.60
2018,04,24,13,24,19.50
2018,04,24,13,25,19.30
2018,04,24,13,26,19.20
2018,04,24,13,27,19.10
2018,04,24,13,28,19.10
2018,04,24,13,29,19.10
2018,04,24,13,30,19.10
2018,04,24,13,31,19.10
2018,04,24,13,32,19.10
2018,04,24,13,33,19.10
2018,04,24,13,34,19.10
2018,04,24,13,35,19.10
2018,04,24,13,36,19.20
2018,04,24,13,37,19.20
2018,04,24,13,38,19.30
2018,04,24,13,39,19.30
2018,04,24,13,40,19.30
2018,04,24,13,41,19.30
2018,04,24,13,42,19.30
2018,04,24,13,43,19.20
2018,04,24,13,44,19.10
2018,04,24,13,45,19.10
2018,04,24,13,46,19.10
2018,04,24,13,47,19.20
2018,04,24,13,48,19.30
2018,04,24,13,49,19.30
2018,04,24,13,50,19.40
2018,04,24,13,51,19.60
2018,04,24,13,52,19.70
2018,04,24,13,53,19.70
2018,04,24,13,54,19.60
2018,04,24,13,55,19.60
2018,04,24,13,56,19.60
2018,04,24,13,57,19.60
2018,04,24,13,58,19.70
2018,04,24,13,59,19.60
2018,04,24,14,00,19.40
2018,04,24,14,01,19.40
2018,04,24,14,02,19.50
2018,04,24,14,03,19.60
2018,04,24,14,04,19.70
2018,04,24,14,05,19.50
2018,04,24,14,06,19.30
2018,04,24,14,07,19.20
2018,04,24,14,08,19.20
2018,04,24,14,09,19.20
2018,04,24,14,10,19.30
2018,04,24,14,11,19.30
2018,04,24,14,12,19.30
2018,04,24,14,13,19.30
2018,04,24,14,14,19.30
2018,04,24,14,15,19.30
2018,04,24,14,16,19.20
2018,04,24,14,17,19.10
2018,04,24,14,18,19.00
2018,04,24,14,19,19.00
2018,04,24,14,20,18.90
2018,04,24,14,21,18.80
2018,04,24,14,22,18.70
2018,04,24,14,23,18.80
2018,04,24,14,24,18.90
2018,04,24,14,25,19.10
2018,04,24,14,26,19.20
2018,04,24,14,27,19.10
2018,04,24,14,28,18.90
2018,04,24,14,29,18.80
2018,04,24,14,30,18.70
2018,04,24,14,31,18.70
2018,04,24,14,32,18.60
2018,04,24,14,33,18.60
2018,04,24,14,34,18.50
2018,04,24,14,35,18.30
2018,04,24,14,36,18.30
2018,04,24,14,37,18.30
2018,04,24,14,38,18.20
2018,04,24,14,39,18.20
2018,04,24,14,40,18.30
2018,04,24,14,41,18.30
2018,04,24,14,42,18.30
2018,04,24,14,43,18.30
2018,04,24,14,44,18.40
2018,04,24,14,45,18.40
2018,04,24,14,46,18.40
2018,04,24,14,47,18.30
2018,04,24,14,48,18.20
2018,04,24,14,49,18.20
2018,04,24,14,50,18.20
2018,04,24,14,51,18.20
2018,04,24,14,52,18.20
2018,04,24,14,53,18.20
2018,04,24,14,54,18.40
2018,04,24,14,55,18.50
2018,04,24,14,56,18.50
2018,04,24,14,57,18.60
2018,04,24,14,58,18.70
2018,04,24,14,59,18.70
2018,04,24,15,00,18.70
2018,04,24,15,01,18.80
2018,04,24,15,02,18.90
2018,04,24,15,03,18.80
2018,04,24,15,04,18.80
2018,04,24,15,05,18.80
2018,04,24,15,06,18.70
2018,04,24,15,07,18.80
2018,04,24,15,08,18.80
2018,04,24,15,09,18.90
2018,04,24,15,10,18.90
2018,04,24,15,11,18.90
2018,04,24,15,12,19.00
2018,04,24,15,13,19.00
2018,04,24,15,14,19.00
2018,04,24,15,15,19.00
2018,04,24,15,16,18.90
2018,04,24,15,17,19.00
2018,04,24,15,18,19.10
2018,04,24,15,19,19.20
2018,04,24,15,20,19.30
2018,04,24,15,21,19.40
2018,04,24,15,22,19.40
2018,04,24,15,23,19.30
2018,04,24,15,24,19.30
2018,04,24,15,25,19.20
2018,04,24,15,26,19.10
2018,04,24,15,27,19.00
2018,04,24,15,28,19.10
2018,04,24,15,29,19.10
2018,04,24,15,30,19.10
2018,04,24,15,31,19.20
2018,04,24,15,32,19.30
2018,04,24,15,33,19.20
2018,04,24,15,34,19.20
2018,04,24,15,35,19.20
2018,04,24,15,36,19.10
2018,04,24,15,37,19.10
2018,04,24,15,38,19.10
2018,04,24,15,39,19.00
2018,04,24,15,40,19.00
2018,04,24,15,41,19.00
2018,04,24,15,42,18.90
2018,04,24,15,43,18.80
2018,04,24,15,44,18.70
2018,04,24,15,45,18.60
2018,04,24,15,46,18.40
2018,04,24,15,47,18.40
2018,04,24,15,48,18.50
2018,04,24,15,49,18.60
2018,04,24,15,50,18.70
2018,04,24,15,51,18.80
2018,04,24,15,52,18.90
2018,04,24,15,53,19.00
2018,04,24,15,54,19.20
2018,04,24,15,55,19.30
2018,04,24,15,56,19.50
2018,04,24,15,57,19.60
2018,04,24,15,58,19.50
2018,04,24,15,59,19.40
2018,04,24,16,00,19.40
2018,04,24,16,01,19.40
2018,04,24,16,02,19.30
2018,04,24,16,03,19.20
2018,04,24,16,04,19.20
2018,04,24,16,05,19.20
2018,04,24,16,06,19.20
2018,04,24,16,07,19.20
2018,04,24,16,08,19.30
2018,04,24,16,09,19.20
2018,04,24,16,10,19.20
2018,04,24,16,11,19.20
2018,04,24,16,12,19.20
2018,04,24,16,13,19.30
2018,04,24,16,14,19.30
2018,04,24,16,15,19.40
2018,04,24,16,16,19.40
2018,04,24,16,17,19.40
2018,04,24,16,18,19.30
2018,04,24,16,19,19.30
2018,04,24,16,20,19.20
2018,04,24,16,21,19.10
2018,04,24,16,22,19.10
2018,04,24,16,23,19.10
2018,04,24,16,24,19.10
2018,04,24,16,25,19.10
2018,04,24,16,26,19.10
2018,04,24,16,27,19.20
2018,04,24,16,28,19.20
2018,04,24,16,29,19.20
2018,04,24,16,30,19.10
2018,04,24,16,31,19.20
2018,04,24,16,32,19.20
2018,04,24,16,33,19.30
2018,04,24,16,34,19.30
2018,04,24,16,35,19.30
2018,04,24,16,36,19.30
2018,04,24,16,37,19.30
2018,04,24,16,38,19.20
2018,04,24,16,39,19.10
2018,04,24,16,40,19.10
2018,04,24,16,41,19.10
2018,04,24,16,42,19.10
2018,04,24,16,43,19.10
2018,04,24,16,44,19.20
2018,04,24,16,45,19.20
2018,04,24,16,46,19.30
2018,04,24,16,47,19.40
2018,04,24,16,48,19.40
2018,04,24,16,49,19.50
2018,04,24,16,50,19.60
2018,04,24,16,51,19.80
2018,04,24,16,52,19.80
2018,04,24,16,53,19.80
2018,04,24,16,54,19.80
2018,04,24,16,55,19.70
2018,04,24,16,56,19.60
2018,04,24,16,57,19.50
2018,04,24,16,58,19.50
2018,04,24,16,59,19.40
2018,04,24,17,00,19.40
2018,04,24,17,01,19.30
2018,04,24,17,02,19.30
2018,04,24,17,03,19.30
2018,04,24,17,04,19.30
2018,04,24,17,05,19.30
2018,04,24,17,06,19.20
2018,04,24,17,07,19.20
2018,04,24,17,08,19.20
2018,04,24,17,09,19.20
2018,04,24,17,10,19.10
2018,04,24,17,11,19.10
2018,04,24,17,12,19.10
2018,04,24,17,13,19.00
2018,04,24,17,14,18.90
2018,04,24,17,15,18.90
2018,04,24,17,16,18.80
2018,04,24,17,17,18.80
2018,04,24,17,18,18.80
2018,04,24,17,19,18.70
2018,04,24,17,20,18.80
2018,04,24,17,21,18.80
2018,04,24,17,22,18.80
2018,04,24,17,23,18.80
2018,04,24,17,24,18.80
2018,04,24,17,25,18.80
2018,04,24,17,26,18.90
2018,04,24,17,27,18.90
2018,04,24,17,28,18.90
2018,04,24,17,29,18.90
2018,04,24,17,30,18.80
2018,04,24,17,31,18.80
2018,04,24,17,32,18.80
2018,04,24,17,33,18.70
2018,04,24,17,34,18.70
2018,04,24,17,35,18.70
2018,04,24,17,36,18.70
2018,04,24,17,37,18.70
2018,04,24,17,38,18.70
2018,04,24,17,39,18.60
2018,04,24,17,40,18.50
2018,04,24,17,41,18.50